Regional Weather Roundup
Issued by NWS

Home | Current Version | Previous Version | Graphics & Text | Print | Product List | Glossary Off
Versions: 1 2 3 4 5 6 7 8 9 10 11 12 13 14 15 16 17 18 19 20 21 22 23 24 25 26 27 28 29 30 31 32 33 34 35 36 37 38 39 40 41 42 43 44 45 46 47 48 49 50

000
ASUS43 KFSD 300110
RWRSD

WEATHER ROUNDUP FOR SOUTH DAKOTA
NATIONAL WEATHER SERVICE SIOUX FALLS SD
800 PM CDT WED JUL 29 2015

NOTE: "FAIR" INDICATES FEW OR NO CLOUDS BELOW 12,000 FEET WITH NO
SIGNIFICANT WEATHER AND/OR OBSTRUCTIONS TO VISIBILITY.


SDZ001>005-009-010-012>017-300200-
NORTHWEST AND NORTH CENTRAL SOUTH DAKOTA

CITY           SKY/WX    TMP DP  RH WIND       PRES   REMARKS
BUFFALO          N/A     80  37  21 NW17G24   30.08S
FAITH            N/A     82  36  19 NW8       30.12R
MOBRIDGE       SUNNY     82  52  35 NW8       30.04S
$$

SDZ012>016-024>037-041>051-057-063-072>074-300200-
SOUTHWEST AND SOUTH CENTRAL SOUTH DAKOTA

CITY           SKY/WX    TMP DP  RH WIND       PRES   REMARKS
RAPID CTY ARPT SUNNY     78  51  38 N7        30.16S
PIERRE         SUNNY     84  42  22 W10       30.06F
CUSTER         SUNNY     72  36  26 VRB3      30.31S
ELLSWORTH AFB  SUNNY     82  40  23 NE5       30.16S
PHILIP         SUNNY     84  54  35 CALM      30.11S
PINE RIDGE     SUNNY     81  49  32 N7        30.17S
SPEARFISH      FAIR      75  41  29 NW5       30.22R
WINNER         FAIR      84  47  27 NW6       30.12S
$$

SDZ004>011-016>023-039-040-300200-
NORTHEAST SOUTH DAKOTA

CITY           SKY/WX    TMP DP  RH WIND       PRES   REMARKS
ABERDEEN       CLEAR     80  48  32 NW15      30.03S
WATERTOWN      CLEAR     77  51  40 W10       30.05R
BROOKINGS      CLEAR     77  57  50 NW7       30.08S
SISSETON         N/A     76  57  51 NW6       29.99R
$$

SDZ017-020-022-023-036>040-048>070-300200-
SOUTHEAST SOUTH DAKOTA

CITY           SKY/WX    TMP DP  RH WIND       PRES   REMARKS
SIOUX FALLS    PTCLDY    80  57  45 W6        30.08R
HURON          CLEAR     79  61  53 NW3       30.05R
CHAMBERLAIN    CLEAR     81  51  35 W8        30.09F
MITCHELL       CLEAR     81  52  36 W6        30.07S
YANKTON        CLEAR     81  55  41 W7        30.08S
$$

ABBREVIATIONS USED IN REMARKS
   TC - TEMPERATURE IN CELSIUS
  WCI - WIND CHILL INDEX
   HX - HEAT INDEX
  VSB - VISIBILITY



USA.gov is the U.S. government's official web portal to all federal, state and local government web resources and services.